www.pogodaiklimat.ru

Погода и климат >> Архив погоды >> Россия >> Дагестан >> Махачкала


АРХИВ ПОГОДЫ в Махачкале

Время (UTC), дата Ветер
(напр.,м/с)
 
Видим.   Явления Облачность Т
(С)
Тd
(С)
f
(%)
Тe
(С)
Тes
(С)
Комфортность P
(гПа)
Po
(гПа)
Тmin
(С)
Tmax
(С)
R
(мм)
R24
(мм)
S
(см)
09 13.04 ЮВ 2 20 км 6/3 600 м
[Cu hum Ac trans Ci fib]
+17.1 +10.3 64 +17 +26 тепло 1016.8 1018.9
12 13.04 ЮВ 4 20 км {гроза, ливн. осадки} 4/3 600 м
[Cu hum Ac trans Ci fib]
+15.4 +10.1 71 +14 +18 тепло 1016.5 1018.6 20
15 13.04 В 2 20 км 6/3 600 м
[Cb calv Ac trans Ci fib]
+13.4 +9.8 79 +13 +13 тепло 1016.2 1018.3 +19.4 6
18 13.04 В 3 20 км {гроза, ливн. осадки} 4/0
[Ac trans Ci fib]
+11.9 +10.1 89 +10 +10 по сезону 1016.8 1019.0
21 13.04 ЮВ 2 20 км 3/0
[Ci fib]
+11.5 +9.9 90 +10 +10 тепло 1015.8 1018.0
00 14.04 ЮВ 2 20 км 3/0
[Ci fib]
+10.4 +9.0 91 +9 +9 по сезону 1015.2 1017.4
03 14.04 В 2 20 км 6/0
[Ci fib]
+10.6 +8.4 86 +9 +10 по сезону 1014.8 1017.0 +9.8 6
06 14.04 В 4 20 км 9/0
[Ac As Ci fib]
+12.3 +9.2 81 +10 +13 по сезону 1014.2 1016.4
09 14.04 В 4 20 км 8/0
[Ac As Ci fib]
+13.5 +9.5 77 +12 +17 по сезону 1013.2 1015.4
12 14.04 В 4
{13}
20 км 9/4 600 м
[Sc Ac As Ci fib]
+12.5 +8.9 79 +11 +13 по сезону 1011.2 1013.3
15 14.04 В 5 20 км 10/5 600 м
[Sc Ac As]
+11.0 +8.5 85 +8 +8 по сезону 1011.3 1013.5 +13.7
18 14.04 В 4 20 км 10/5 600 м
[Sc Ac As]
+10.1 +8.6 90 +7 +7 по сезону 1010.8 1013.0
21 14.04 В 5 4000 м дымка 8/0
[Ac As Ci fib]
+9.9 +8.6 92 +7 +7 по сезону 1009.0 1011.2
00 15.04 ЮВ 4
{11}
4000 м дымка 10/6
[Sc Ac As]
+9.6 +8.5 93 +7 +7 по сезону 1007.8 1010.0
03 15.04 В 3 500 м туман н/о +9.2 +8.2 93 +7 +7 по сезону 1008.5 1010.7 +9.2
06 15.04 В 2 500 м туман н/о +9.6 +8.6 93 +8 +8 по сезону 1008.9 1011.1
09 15.04 В 1 4000 м дымка {туман} 10/5 600 м
[Sc Ac As]
+10.5 +9.1 91 +10 +13 по сезону 1009.1 1011.2
12 15.04 СЗ 5 4000 м дымка 10/8 600 м
[Sc Ac As]
+12.4 +9.4 82 +10 +10 по сезону 1011.0 1013.2
15 15.04 СЗ 4 4000 м дымка 10/5 600 м
[Sc Ac As]
+12.6 +9.5 81 +11 +11 по сезону 1011.6 1013.7 +13.3
18 15.04 З 1 4000 м дымка 10/5 600 м
[Sc Ac As]
+12.1 +9.5 84 +12 +12 тепло 1013.1 1015.2
21 15.04 ЮВ 2
{1=}
н/о {ливн. осадки} н/о +10.3 +8.3 87 +9 +9 по сезону 1011.8 1013.9
00 16.04 СЗ 1 4000 м дымка 10/6 600 м
[Sc Ac As]
+9.7 +8.1 90 +9 +9 по сезону 1009.9 1012.1
03 16.04 З 1 4000 м дымка 10/8 600 м
[Sc Ac As]
+10.7 +9.0 89 +10 +10 по сезону 1009.8 1012.0 +9.5 10
06 16.04 В 1 4000 м дымка 10/8 600 м
[Sc Ac As]
+12.3 +9.5 83 +12 +13 по сезону 1011.0 1013.2
09 16.04 ЮВ 2 4000 м дымка 10/6 600 м
[Sc Ac As]
+13.2 +9.9 80 +12 +14 по сезону 1010.8 1012.9
12 16.04 ЮВ 2 4000 м дымка 10/6 600 м
[Sc Ac As]
+12.7 +9.6 81 +12 +13 по сезону 1009.9 1012.1
15 16.04 З 2 4000 м дымка 10/6 600 м
[Sc Ac As]
+16.9 +10.7 67 +17 +17 тепло 1009.9 1012.0 +17.5 3
18 16.04 З 2 4000 м слаб. дождь 10/10 600 м
[Frnb Ns]
+14.6 +11.8 83 +14 +14 тепло 1011.1 1013.2
21 16.04 З 2 4000 м дымка {дождь} 10/6 600 м
[Sc Ac As]
+14.1 +11.5 84 +14 +14 тепло 1009.8 1011.9
00 17.04 З 2 4000 м дымка 10/6 600 м
[Sc Ac As]
+13.8 +11.0 83 +13 +13 тепло 1009.3 1011.4
03 17.04 З 3-10
{1=}
4000 м дымка 10/6 600 м
[Sc Ac As]
+13.1 +10.5 84 +12 +12 тепло 1009.0 1011.1 +13.1 0.0
06 17.04 З 4 10 км 10/8 600 м
[Sc Ac trans]
+13.9 +9.9 77 +12 +13 по сезону 1008.5 1010.6
09 17.04 СЗ 5-14
{1=}
10 км {снег} 10/6 600 м
[Sc Ac trans]
+14.8 +9.4 70 +13 +15 по сезону 1006.9 1009.0
12 17.04 З 6-10
{11}
4000 м слаб. ливневой дождь 10/10 600 м
[Cb cap]
+13.0 +10.0 82 +11 +11 по сезону 1007.1 1009.2
15 17.04 З 5
{10}
10 км слаб. ливневой дождь 10/10 600 м
[Cb cap]
+11.7 +7.9 77 +9 +9 по сезону 1007.1 1009.3 +15.1 3
18 17.04 З 5 4000 м {ливн. осадки} 9/4 600 м
[Cb calv Ac trans Ci fib]
+12.2 +7.5 73 +10 +10 по сезону 1006.7 1008.8
21 17.04 СЗ 8-15
{15}
20 км 10/6 600 м
[Sc Ac trans]
+11.9 +7.9 76 +9 +9 по сезону 1007.4 1009.6
00 18.04 СЗ 9-17
{20}
4000 м дымка {дождь} 9/6 600 м
[Sc Ac trans Ci fib]
+8.1 +5.8 85 +3 +3 прохладно 1010.6 1012.8
03 18.04 СЗ 8-14
{17}
4000 м дымка 10/6 600 м
[Cb cap Ac trans]
+5.7 +3.2 84 0 0 очень
холодно
1014.2 1016.5 +5.7 4
06 18.04 СЗ 8-14
{16}
4000 м дымка 10/6 600 м
[Sc Ac As]
+5.6 +2.0 78 0 0 очень
холодно
1017.5 1019.7 +5.1
09 18.04 СЗ 8-14
{18}
10 км 10/8 600 м
[Cb calv Ac As]
+6.0 +1.7 74 +1 +1 очень
холодно
1018.9 1021.1
12 18.04 СЗ 9-13
{15}
10 км 10/5 600 м
[Cb calv Ac As]
+5.8 +1.1 72 0 0 очень
холодно
1020.3 1022.6
15 18.04 З 4
{14}
4000 м слаб. дождь 10/10 600 м
[Frnb Ns]
+4.8 +2.1 83 +1 +1 очень
холодно
1021.9 1024.1 +6.6 0.0
18 18.04 З 3 4000 м дымка {дождь} 10/8 600 м
[Sc Ac As]
+5.1 +2.3 82 +2 +2 холодно 1022.9 1025.1
21 18.04 З 1 10 км 10/5 600 м
[Sc Ac As]
+5.8 +1.8 75 +5 +5 прохладно 1022.4 1024.7
00 19.04 СЗ 2 4000 м дымка 10/8 600 м
[Sc Ac As]
+5.0 +2.3 83 +2 +2 холодно 1021.7 1024.0
03 19.04 З 2 10 км 10/8 600 м
[Sc Ac As]
+5.1 +2.5 83 +3 +3 холодно 1021.6 1023.8 +4.7 0.0
06 19.04 З 2 10 км 10/8 600 м
[Sc Ac As]
+6.5 +2.2 74 +4 +5 холодно 1022.2 1024.4
09 19.04 В 2 10 км 10/5 600 м
[Sc Ac As]
+7.6 +0.4 60 +6 +8 холодно 1022.3 1024.5 70
12 19.04 В 2 10 км {морось} 10/6 600 м
[Sc Ac As]
+7.5 +1.9 68 +6 +7 холодно 1021.8 1024.0 90
15 19.04 В 2 10 км в посл. час ливневой дождь 10/8 600 м
[Cb calv Ac As]
+6.7 +1.6 70 +5 +5 холодно 1022.6 1024.8 +8.0 0.0
18 19.04 ЮВ 2 10 км {ливн. осадки} 10/6 600 м
[Sc Ac As]
+5.9 +1.8 75 +4 +4 холодно 1023.6 1025.9
21 19.04 В 3 н/о н/о +6.4 +1.3 70 +4 +4 прохладно 1022.3 1024.6
00 20.04 З 1 10 км 10/5 600 м
[Sc Ac As]
+5.3 +1.5 76 +4 +4 прохладно 1021.4 1023.6
03 20.04 ЮЗ 1 4000 м слаб. ливневой дождь 10/10 600 м
[Cb cap]
+5.3 +1.7 78 +4 +4 холодно 1021.5 1023.8 +5.3

 

Местоположение метеостанции Махачкала (Дагестан, Россия): широта 43.02 долгота 47.48 высота над уровнем моря -19 м.

В архиве по умолчанию представлена погода в Махачкале за последнюю неделю. Архивные данные за месяц целиком и за предыдущие месяцы, начиная с января 2011 года, Вы можете получить, выбрав интересующий диапазон дат из раскрывающегося списка и нажав кнопку "Ввод!".


*Определитесь, кто Вы:
робот инопланетянин человек

Внимание! Время в таблицах - всемирное. Для получения местного времени необходимо прибавить поправку, которая равна 3 ч.

Смотрите также архив погоды в соседних городах и на ближайших метеорологических станциях:

Погода в Буйнакске (Дагестан, Россия) (37 км)
Погода в Сергокале (Дагестан, Россия) (65 км)
Погода в Изберге (Дагестан, Россия) (65 км)
Погода в Куппе (Дагестан, Россия) (73 км)
Погода в Хасавюрте (Дагестан, Россия) (77 км)
Погода в Гунибе (Дагестан, Россия) (81 км)
Погода в Хунзахе (Дагестан, Россия) (81 км)
Погода в Бабаюрте (Дагестан, Россия) (86 км)
Погода в Кумухе (Дагестан, Россия) (104 км)
Погода в Шелковской (Чечня, Россия) (106 км)

Пояснения к столбцам:

Ветер - указаны скорость ветра в м/с - средняя за 10 мин, порывы в срок и между сроками (в фигурных скобках) и направление, откуда дует ветер: С - северный, СВ - северо-восточный, В - восточный, ЮВ - юго-восточный, Ю - южный, ЮЗ - юго-западный, З - западный, СЗ - северо-западный.
Видимость - горизонтальная дальность видимости в метрах или километрах. При видимости от 1 до 10 км при отсутствии осадков обычно наблюдается дымка, при ухудшении видимости до 1 км и менее - туман. В сухую погоду видимость может ухудшаться дымом, пылью или мглою.
Явления - указаны атмосферные явления, наблюдавшиеся в срок или в последний час перед сроком; фигурными скобками обозначены явления, наблюдавшиеся между сроками (за 1-3 часа до срока); квадратными скобками обозначены град или гололедные отложения с указанием их диаметра в мм.
Облачность - указаны через наклонную черту общая и нижняя облачность в баллах и высота нижней границы облаков в метрах; квадратными скобками обозначены формы облаков: Ci - перистые, Cs - перисто-слоистые, Cc - перисто-кучевые, Ac - высококучевые, As - высокослоистые, Sc - слоисто-кучевые, Ns - слоисто-дождевые, Cu - кучевые, Cb - кучево-дождевые. Подробнее классификацию облаков см. в Атласе облаков (PDF).
T - Температура воздуха - температура, измеренная на высоте 2 м над землей.
Td - Температура точки росы - температура, при понижении до которой содержащийся в воздухе водяной пар достигнет насыщения.
f - Относительная влажность воздуха - влажноcть воздуха, измеренная на высоте 2 м над землей.
Te - Эффективная температура - температура, которую ощущает одетый по сезону человек в тени. Характеристика душности погоды. При расчете учитывается влияние влажности воздуха и скорости ветра на теплоощущения человека.
Tes - Эффективная температура на солнце - температура, которую ощущает человек, с поправкой на солнечный нагрев. Характеристика знойности погоды. Зависит от высоты солнца над горизонтом, облачности и скорости ветра. Ночью, в пасмурную погоду, а также при ветре 12 м/с и более поправка равна нулю.
P - Атмосферное давление - приведенное к уровню моря атмосферное давление.
Po - Атмосферное давление - измеренное на уровне метеостанции атмосферное давление.
Tmin - Минимальная температура - минимум температуры воздуха на высоте 2 м над землей.
Tmax - Максимальная температура - максимум температуры воздуха на высоте 2 м над землей.
R - Количество осадков - Количество выпавших осадков за период времени, мм. При наведении курсора мыши на число - период времени, за который выпало указанное количество осадков.
R24 - Количество осадков - Количество выпавших осадков за 24 часа, мм.
S - Снежный покров - Высота снежного покрова, см. При наведении курсора мыши на число - состояние снежного покрова и степень покрытия местности в баллах.